Regional Weather Roundup
Issued by NWS

Home | Current Version | Previous Version | Text Only | Print | Product List | Glossary On
Versions: 1 2 3 4 5 6 7 8 9 10 11 12 13 14 15 16 17 18 19 20 21 22 23 24 25 26 27 28 29 30 31 32 33 34 35 36 37 38 39 40 41 42 43 44 45 46 47 48 49 50
127
ASUS46 KSTO 180704
RWRCA

NORTHERN AND CENTRAL CA REGIONAL WEATHER ROUNDUP
NATIONAL WEATHER SERVICE SACRAMENTO CA
1100 PM PST TUE JAN 17 2017

NOTE: FAIR INDICATES FEW OR NO CLOUDS BELOW 12,000 FEET WITH NO
SIGNIFICANT WEATHER AND/OR OBSTRUCTIONS TO VISIBILITY.

CAZ001-003-180800-
NORTHWEST AREA

CITY           SKY/WX    TMP DP  RH WIND       PRES   REMARKS
CRESCENT CITY  LGT RAIN  53  48  83 S26G40    29.80S
UKIAH          CLOUDY    47  43  86 SW3       30.10R
$$

CAZ006-505>513-180800-
BAY AREA

CITY           SKY/WX    TMP DP  RH WIND       PRES   REMARKS
SANTA ROSA     CLOUDY    45  43  93 W5        30.12R FOG
SAN RAFAEL     N/A       44  MM  MM MISG
NAPA           CLOUDY    46  41  82 E12       30.11R
CONCORD        CLOUDY    45  40  82 N5        30.12F HAZE
OAKLAND CITY   N/A       48  MM  MM MISG
OAKLAND        CLOUDY    50  43  77 SE6       30.10F
SAN FRAN CITY  N/A       48  MM  82 MISG
SAN FRAN ARPT  CLOUDY    49  43  80 S6        30.09F
LIVERMORE      CLOUDY    43  39  86 S3        30.11F FOG
HAYWARD        CLOUDY    49  40  71 NE3       30.10F
REDWOOD CITY   N/A       MM  MM  MM MISG
MOFFETT ARPT   CLOUDY    49  43  80 CALM      30.11F
SAN JOSE ARPT  CLOUDY    49  43  80 CALM      30.10F
$$
CAZ034-037-514>518-180800-
CENTRAL COAST

CITY           SKY/WX    TMP DP  RH WIND       PRES   REMARKS
WATSONVILLE    CLOUDY    45  43  93 NW3       30.13S
SALINAS        CLOUDY    46  44  93 E3        30.13S
MONTEREY       CLOUDY    49  47  93 E5        30.13S
SAN LUIS OBISP MOCLDY    45  41  86 CALM      30.14F
SANTA MARIA    PTCLDY    43  40  89 CALM      30.15F
$$
CAZ015-016-180800-
NORTHERN SACRAMENTO VALLEY

CITY           SKY/WX    TMP DP  RH WIND       PRES   REMARKS
REDDING        LGT RAIN  45  43  93 CALM      30.12R FOG
RED BLUFF      CLOUDY    44  42  93 CALM      30.14R
OROVILLE       CLOUDY    43  41  93 SW5       30.12F FOG
$$
CAZ016>018-180800-
SOUTHERN SACRAMENTO VALLEY

CITY           SKY/WX    TMP DP  RH WIND       PRES   REMARKS
AUBURN         CLOUDY    46  39  76 E9        30.10F
LINCOLN        CLOUDY    39  37  93 SE3       30.10F
MARYSVILLE     CLOUDY    42  41  96 SW5       30.14F FOG
SAC INTL ARPT  FOG       42  42 100 W3        30.13S VSB 1
MATHER AIRPORT NOT AVBL
DOWNTOWN SAC   N/A       42  MM  MM MISG
SAC EXEC ARPT  CLOUDY    42  42 100 E3        30.12F FOG
VACAVILLE      CLOUDY    43  42  97 CALM      30.14F FOG
TRAVIS AFB     CLOUDY    42  41  97 NE3       30.11F FOG
$$
CAZ019>021-180800-
SAN JOAQUIN VALLEY

CITY           SKY/WX    TMP DP  RH WIND       PRES   REMARKS
STOCKTON       CLOUDY    41  40  96 E3        30.12F FOG
MODESTO        CLOUDY    42  39  89 CALM      30.15S FOG
MERCED         CLOUDY    39  38  96 CALM      30.15F FOG
LEMOORE        MOCLDY    38  37  97 CALM      30.18S FOG
FRESNO         MOCLDY    43  40  89 CALM      30.17S FOG
HANFORD        FOG       39  39 100 CALM      30.18R VSB 1
PORTERVILLE    CLEAR     40  38  93 E6        30.17F FOG
BAKERSFIELD    CLEAR     48  41  76 E8        30.17R HAZE
$$
CAZ011-012-071-180800-
NORTHERN MOUNTAINS

CITY           SKY/WX    TMP DP  RH WIND       PRES   REMARKS
YREKA          LGT RAIN  43  31  62 S20G31    29.91F
MOUNT SHASTA   FLURRIES  38  29  70 E9G20     30.05F WCI  31
ALTURAS        CLOUDY    37  26  64 S10       30.02F WCI  30
$$
CAZ011-012-071-180800-
SIERRA NEVADA MTNS

CITY           SKY/WX    TMP DP  RH WIND       PRES   REMARKS
BLUE CANYON    CLOUDY    38  26  62 SE6       30.13F WCI  33
TRUCKEE        CLOUDY    27  27 100 CALM      30.11F
TAHOE VLY ARPT CLOUDY    31  28  89 SW3       30.11S
MAMMOTH LAKES  FAIR      12   7  79 CALM      30.18S
$$




USA.gov is the U.S. government's official web portal to all federal, state and local government web resources and services.